Theta_e
300 305 305 305 306 305 303 303 305 306 307 307 308 308 308 306 306 304 302 301 301 300
295 297 299 301 302 302 302 303 303 302 302 302 305 304 303 301 300 300 299 298 297 295
292 293 293 294 295 295 296 296 296 296 296 295 295 296 296 294 294 293 293 293 292 291
289 290 290 290 290 290 291 292 292 292 292 291 291 292 291 290 289 288 288 288 287 286
287 288 287 287 287 288 288 288 289 289 288 288 288 288 287 285 285 285 284 284 283 282
285 285 285 285 285 286 286 286 286 286 285 285 284 284 284 283 282 281 281 280 280 280
283 283 283 283 283 283 284 284 284 284 284 283 283 282 282 281 280 280 280 281 281 280
282 282 282 281 281 281 281 282 283 283 283 283 282 282 281 280 280 279 278 279 279 279
280 280 280 280 280 280 280 280 280 280 281 281 283 285 284 281 280 279 279 277 278 278
278 277 277 278 278 278 278 278 278 279 279 279 281 284 283 282 279 279 278 278 278 278
276 276 276 276 276 276 277 277 277 278 278 279 280 282 282 281 278 278 277 277 278 278
275 275 275 275 274 275 276 276 276 277 277 277 279 282 281 279 277 277 276 277 277 277
275 275 274 274 274 275 275 276 276 276 275 275 277 281 281 279 278 276 276 276 276 279
274 274 274 274 274 275 275 274 274 273 274 274 274 278 280 279 278 277 275 274 274 275
Wind_Speed
9 5 4 5 5 5 5 4 5 6 6 8 8 7 7 5 5 7 9 12 12 7
8 8 7 7 7 6 6 5 7 8 8 8 7 7 7 7 7 6 9 6 7 9
8 8 8 8 8 8 7 6 8 8 8 10 9 8 10 9 8 10 7 6 9 8
8 8 8 8 8 8 8 7 8 8 8 9 10 8 9 9 9 12 10 9 10 10
8 8 8 9 8 8 9 9 8 8 8 9 10 10 10 10 9 11 9 9 9 8
8 8 9 9 9 9 10 8 10 9 11 10 11 11 10 11 10 12 9 8 8 8
8 8 8 8 9 10 10 10 10 10 11 10 10 9 9 10 10 10 9 10 10 9
7 8 9 9 10 10 10 9 9 10 10 9 8 6 8 8 10 10 10 9 9 10
8 9 9 9 9 10 10 9 9 9 9 8 7 15 15 10 8 8 9 9 8 8
7 8 7 7 8 8 8 8 9 8 8 8 7 14 14 14 7 8 7 7 7 7
6 7 6 7 7 6 6 7 5 6 6 6 8 14 14 13 8 8 8 7 7 6
5 5 5 6 5 5 5 6 6 6 6 6 6 11 11 8 6 7 7 6 5 6
4 4 5 5 4 3 4 5 5 6 5 6 5 9 9 7 4 5 4 3 5 7
3 4 4 4 3 3 4 5 5 5 5 5 5 5 8 8 4 4 3 3 2 2
Wind_Direction
15 20 36 58 63 53 55 58 43 54 54 47 35 35 58 47 68 66 72 49 30 60
26 30 31 38 73 71 65 64 46 52 51 42 35 67 49 61 31 54 55 59 59 65
38 37 42 40 49 68 62 60 74 63 64 56 58 46 69 59 49 60 57 57 73 72
45 43 56 52 46 59 65 65 63 67 68 77 70 56 79 77 75 77 58 52 63 64
52 50 57 58 52 55 59 50 61 65 70 67 66 72 71 70 67 73 70 77 67 63
52 53 54 55 53 54 59 55 57 61 63 61 64 66 64 74 75 74 68 67 75 67
55 58 58 57 55 57 57 60 58 60 65 63 64 74 77 81 84 81 77 68 63 64
59 62 62 59 57 59 58 58 60 66 63 64 69 70 77 79 76 77 71 64 63 54
70 67 63 63 63 63 60 56 62 62 64 68 75 84 86 84 87 84 81 77 67 61
72 73 64 62 66 65 66 68 64 62 70 69 74 84 85 83 78 83 80 82 83 75
77 83 80 79 76 68 62 63 66 60 57 75 82 87 88 87 81 81 75 73 73 77
96 100 101 99 100 94 87 76 72 61 53 58 65 80 85 84 78 83 77 69 56 58
96 104 106 107 105 104 111 107 98 89 60 50 54 81 87 92 99 98 96 78 59 55
97 102 108 104 78 76 84 83 78 87 66 60 36 61 81 88 90 109 103 84 50 23